Time,TemperatureF,DewpointF,PressureIn,WindDirection,WindDirectionDegrees,WindSpeedMPH,WindSpeedGustMPH,Humidity,HourlyPrecipIn,Conditions,Clouds,dailyrainin,SolarRadiationWatts/m^2,SoftwareType,DateUTC
2013-03-15 00:02:00,32.0,25.0,-100.00,West,274,4.0,16.0,75,0.00,,,0.00,0.000000,,2013-03-15 05:02:00,
2013-03-15 00:12:00,32.0,25.0,-100.00,West,274,4.0,16.0,75,0.00,,,0.00,0.000000,,2013-03-15 05:12:00,
2013-03-15 00:32:00,32.0,25.0,-100.00,West,280,4.0,10.0,76,0.00,,,0.00,0.000000,,2013-03-15 05:32:00,
2013-03-15 00:42:00,32.0,25.0,-100.00,West,280,4.0,10.0,76,0.00,,,0.00,0.000000,,2013-03-15 05:42:00,
2013-03-15 00:52:00,32.0,25.0,-100.00,West,280,4.0,10.0,76,0.00,,,0.00,0.000000,,2013-03-15 05:52:00,
2013-03-15 01:02:00,32.0,25.0,-100.00,West,280,4.0,10.0,76,0.00,,,0.00,0.000000,,2013-03-15 06:02:00,
2013-03-15 01:12:00,32.0,25.0,-100.00,West,280,4.0,10.0,76,0.00,,,0.00,0.000000,,2013-03-15 06:12:00,
2013-03-15 01:32:00,32.0,26.0,-100.00,West,277,4.0,10.0,77,0.00,,,0.00,0.000000,,2013-03-15 06:32:00,
2013-03-15 01:42:00,32.0,26.0,-100.00,West,277,4.0,10.0,77,0.00,,,0.00,0.000000,,2013-03-15 06:42:00,
2013-03-15 01:53:00,32.0,26.0,-100.00,West,277,4.0,10.0,77,0.00,,,0.00,0.000000,,2013-03-15 06:53:00,
2013-03-15 02:02:00,32.0,26.0,-100.00,West,277,4.0,10.0,77,0.00,,,0.00,0.000000,,2013-03-15 07:02:00,
2013-03-15 02:12:00,32.0,26.0,-100.00,West,277,4.0,10.0,77,0.00,,,0.00,0.000000,,2013-03-15 07:12:00,
2013-03-15 03:33:00,32.0,27.0,-100.00,WNW,290,4.0,11.0,83,-99.99,,,0.00,0.000000,,2013-03-15 08:33:00,
2013-03-15 03:42:00,32.0,27.0,-100.00,WNW,290,4.0,11.0,83,-99.99,,,0.00,0.000000,,2013-03-15 08:42:00,
2013-03-15 03:52:00,32.0,27.0,-100.00,WNW,290,4.0,11.0,83,-99.99,,,0.00,0.000000,,2013-03-15 08:52:00,
2013-03-15 04:02:00,32.0,27.0,-100.00,WNW,290,4.0,11.0,83,-99.99,,,0.00,0.000000,,2013-03-15 09:02:00,
2013-03-15 04:12:00,32.0,27.0,-100.00,WNW,290,4.0,11.0,83,-99.99,,,0.00,0.000000,,2013-03-15 09:12:00,
2013-03-15 04:33:00,32.0,27.0,-100.00,NW,305,4.0,11.0,83,0.00,,,0.00,0.000000,,2013-03-15 09:33:00,
2013-03-15 04:43:00,32.0,27.0,-100.00,NW,305,4.0,11.0,83,0.00,,,0.00,0.000000,,2013-03-15 09:43:00,
2013-03-15 04:53:00,32.0,27.0,-100.00,NW,305,4.0,11.0,83,0.00,,,0.00,0.000000,,2013-03-15 09:53:00,
2013-03-15 05:03:00,32.0,27.0,-100.00,NW,305,4.0,11.0,83,0.00,,,0.00,0.000000,,2013-03-15 10:03:00,
2013-03-15 05:12:00,32.0,27.0,-100.00,NW,305,4.0,11.0,83,0.00,,,0.00,0.000000,,2013-03-15 10:12:00,
2013-03-15 05:33:00,31.0,26.0,-100.00,North,4,4.0,11.0,82,0.00,,,0.00,0.000000,,2013-03-15 10:33:00,
2013-03-15 05:43:00,31.0,26.0,-100.00,North,4,4.0,11.0,82,0.00,,,0.00,0.000000,,2013-03-15 10:43:00,
2013-03-15 05:52:00,31.0,26.0,-100.00,North,4,4.0,11.0,82,0.00,,,0.00,0.000000,,2013-03-15 10:52:00,
2013-03-15 06:03:00,31.0,26.0,-100.00,North,4,4.0,11.0,82,0.00,,,0.00,0.000000,,2013-03-15 11:03:00,
2013-03-15 06:12:00,31.0,26.0,-100.00,North,4,4.0,11.0,82,0.00,,,0.00,0.000000,,2013-03-15 11:12:00,
2013-03-15 06:32:00,30.0,25.0,-100.00,NNW,336,4.0,12.0,82,0.00,,,0.00,0.000000,,2013-03-15 11:32:00,
2013-03-15 06:42:00,30.0,25.0,-100.00,NNW,336,4.0,12.0,82,0.00,,,0.00,0.000000,,2013-03-15 11:42:00,
2013-03-15 06:52:00,30.0,25.0,-100.00,NNW,336,4.0,12.0,82,0.00,,,0.00,0.000000,,2013-03-15 11:52:00,
2013-03-15 07:02:00,30.0,25.0,-100.00,NNW,336,4.0,12.0,82,0.00,,,0.00,0.000000,,2013-03-15 12:02:00,
2013-03-15 07:12:00,30.0,25.0,-100.00,NNW,336,4.0,12.0,82,0.00,,,0.00,0.000000,,2013-03-15 12:12:00,
2013-03-15 07:32:00,28.0,22.0,-100.00,North,349,5.0,12.0,79,0.00,,,0.00,1.000000,,2013-03-15 12:32:00,
2013-03-15 07:42:00,28.0,22.0,-100.00,North,349,5.0,12.0,79,0.00,,,0.00,1.000000,,2013-03-15 12:42:00,
2013-03-15 07:52:00,28.0,22.0,-100.00,North,349,5.0,12.0,79,0.00,,,0.00,1.000000,,2013-03-15 12:52:00,
2013-03-15 08:02:00,28.0,22.0,-100.00,North,349,5.0,12.0,79,0.00,,,0.00,1.000000,,2013-03-15 13:02:00,
2013-03-15 08:12:00,28.0,22.0,-100.00,North,349,5.0,12.0,79,0.00,,,0.00,1.000000,,2013-03-15 13:12:00,
2013-03-15 08:42:00,27.0,19.0,-100.00,North,6,5.0,11.0,71,0.00,,,0.00,17.000000,,2013-03-15 13:42:00,
2013-03-15 08:52:00,27.0,19.0,-100.00,North,6,5.0,11.0,71,0.00,,,0.00,17.000000,,2013-03-15 13:52:00,
2013-03-15 09:02:00,27.0,19.0,-100.00,North,6,5.0,11.0,71,0.00,,,0.00,17.000000,,2013-03-15 14:02:00,
2013-03-15 09:12:00,27.0,19.0,-100.00,North,6,5.0,11.0,71,0.00,,,0.00,17.000000,,2013-03-15 14:12:00,
2013-03-15 09:13:00,26.0,16.0,-100.00,North,8,6.0,13.0,66,0.00,,,0.00,64.000000,,2013-03-15 14:13:00,
2013-03-15 09:33:00,26.0,16.0,-100.00,North,8,6.0,13.0,66,0.00,,,0.00,64.000000,,2013-03-15 14:33:00,
2013-03-15 09:42:00,26.0,16.0,-100.00,North,8,6.0,13.0,66,0.00,,,0.00,64.000000,,2013-03-15 14:42:00,
2013-03-15 09:53:00,26.0,16.0,-100.00,North,8,6.0,13.0,66,0.00,,,0.00,64.000000,,2013-03-15 14:53:00,
2013-03-15 10:02:00,26.0,16.0,-100.00,North,8,6.0,13.0,66,0.00,,,0.00,64.000000,,2013-03-15 15:02:00,
2013-03-15 10:33:00,28.0,16.0,-100.00,North,9,6.0,11.0,61,0.00,,,0.00,183.000000,,2013-03-15 15:33:00,
2013-03-15 10:43:00,28.0,16.0,-100.00,North,9,6.0,11.0,61,0.00,,,0.00,183.000000,,2013-03-15 15:43:00,
2013-03-15 10:53:00,28.0,16.0,-100.00,North,9,6.0,11.0,61,0.00,,,0.00,183.000000,,2013-03-15 15:53:00,
2013-03-15 11:03:00,28.0,16.0,-100.00,North,9,6.0,11.0,61,0.00,,,0.00,183.000000,,2013-03-15 16:03:00,
2013-03-15 11:12:00,28.0,16.0,-100.00,North,9,6.0,11.0,61,0.00,,,0.00,183.000000,,2013-03-15 16:12:00,
2013-03-15 11:32:00,30.0,14.0,-100.00,NNW,335,7.0,16.0,51,0.00,,,0.00,386.000000,,2013-03-15 16:32:00,
2013-03-15 11:42:00,30.0,14.0,-100.00,NNW,335,7.0,16.0,51,0.00,,,0.00,386.000000,,2013-03-15 16:42:00,
2013-03-15 11:52:00,30.0,14.0,-100.00,NNW,335,7.0,16.0,51,0.00,,,0.00,386.000000,,2013-03-15 16:52:00,
2013-03-15 12:02:00,30.0,14.0,-100.00,NNW,335,7.0,16.0,51,0.00,,,0.00,386.000000,,2013-03-15 17:02:00,
2013-03-15 12:12:00,30.0,14.0,-100.00,NNW,335,7.0,16.0,51,0.00,,,0.00,386.000000,,2013-03-15 17:12:00,
2013-03-15 12:32:00,33.0,13.0,-100.00,NNW,342,6.0,15.0,43,0.00,,,0.00,583.000000,,2013-03-15 17:32:00,
2013-03-15 12:43:00,33.0,13.0,-100.00,NNW,342,6.0,15.0,43,0.00,,,0.00,583.000000,,2013-03-15 17:43:00,
2013-03-15 12:53:00,33.0,13.0,-100.00,NNW,342,6.0,15.0,43,0.00,,,0.00,583.000000,,2013-03-15 17:53:00,
2013-03-15 13:02:00,33.0,13.0,-100.00,NNW,342,6.0,15.0,43,0.00,,,0.00,583.000000,,2013-03-15 18:02:00,
2013-03-15 13:12:00,33.0,13.0,-100.00,NNW,342,6.0,15.0,43,0.00,,,0.00,583.000000,,2013-03-15 18:12:00,
2013-03-15 13:42:00,34.0,12.0,-100.00,North,357,6.0,13.0,40,0.00,,,0.00,699.000000,,2013-03-15 18:42:00,
2013-03-15 13:52:00,34.0,12.0,-100.00,North,357,6.0,13.0,40,0.00,,,0.00,699.000000,,2013-03-15 18:52:00,
2013-03-15 14:02:00,34.0,12.0,-100.00,North,357,6.0,13.0,40,0.00,,,0.00,699.000000,,2013-03-15 19:02:00,
2013-03-15 14:12:00,34.0,12.0,-100.00,North,357,6.0,13.0,40,0.00,,,0.00,699.000000,,2013-03-15 19:12:00,
2013-03-15 14:42:00,34.0,12.0,-100.00,North,359,6.0,15.0,39,0.00,,,-99.99,707.000000,,2013-03-15 19:42:00,
2013-03-15 14:52:00,34.0,12.0,-100.00,North,359,6.0,15.0,39,0.00,,,-99.99,707.000000,,2013-03-15 19:52:00,
2013-03-15 15:02:00,34.0,12.0,-100.00,North,359,6.0,15.0,39,0.00,,,-99.99,707.000000,,2013-03-15 20:02:00,
2013-03-15 15:12:00,34.0,12.0,-100.00,North,359,6.0,15.0,39,0.00,,,-99.99,707.000000,,2013-03-15 20:12:00,
2013-03-15 15:42:00,34.0,11.0,-100.00,North,0,5.0,12.0,37,0.00,,,0.00,541.000000,,2013-03-15 20:42:00,
2013-03-15 15:52:00,34.0,11.0,-100.00,North,0,5.0,12.0,37,0.00,,,0.00,541.000000,,2013-03-15 20:52:00,
2013-03-15 16:02:00,34.0,11.0,-100.00,North,0,5.0,12.0,37,0.00,,,0.00,541.000000,,2013-03-15 21:02:00,
2013-03-15 16:12:00,34.0,11.0,-100.00,North,0,5.0,12.0,37,0.00,,,0.00,541.000000,,2013-03-15 21:12:00,
2013-03-15 16:13:00,29.0,6.0,-100.00,NNE,13,6.0,14.0,37,0.00,,,0.00,352.000000,,2013-03-15 21:13:00,
2013-03-15 16:43:00,29.0,6.0,-100.00,NNE,13,6.0,14.0,37,0.00,,,0.00,352.000000,,2013-03-15 21:43:00,
2013-03-15 16:53:00,29.0,6.0,-100.00,NNE,13,6.0,14.0,37,0.00,,,0.00,352.000000,,2013-03-15 21:53:00,
2013-03-15 17:03:00,29.0,6.0,-100.00,NNE,13,6.0,14.0,37,0.00,,,0.00,352.000000,,2013-03-15 22:03:00,
2013-03-15 17:33:00,27.0,5.0,-100.00,NE,34,5.0,12.0,39,0.00,,,0.00,286.000000,,2013-03-15 22:33:00,
2013-03-15 17:42:00,27.0,5.0,-100.00,NE,34,5.0,12.0,39,0.00,,,0.00,286.000000,,2013-03-15 22:42:00,
2013-03-15 17:53:00,27.0,5.0,-100.00,NE,34,5.0,12.0,39,0.00,,,0.00,286.000000,,2013-03-15 22:53:00,
2013-03-15 18:02:00,27.0,5.0,-100.00,NE,34,5.0,12.0,39,0.00,,,0.00,286.000000,,2013-03-15 23:02:00,
2013-03-15 18:12:00,27.0,5.0,-100.00,NE,34,5.0,12.0,39,0.00,,,0.00,286.000000,,2013-03-15 23:12:00,
2013-03-15 18:42:00,24.0,5.0,-100.00,NNE,23,6.0,10.0,44,0.00,,,0.00,77.000000,,2013-03-15 23:42:00,
2013-03-15 18:53:00,24.0,5.0,-100.00,NNE,23,6.0,10.0,44,0.00,,,0.00,77.000000,,2013-03-15 23:53:00,
2013-03-15 19:02:00,24.0,5.0,-100.00,NNE,23,6.0,10.0,44,0.00,,,0.00,77.000000,,2013-03-16 00:02:00,
2013-03-15 19:12:00,24.0,5.0,-100.00,NNE,23,6.0,10.0,44,0.00,,,0.00,77.000000,,2013-03-16 00:12:00,
2013-03-15 20:32:00,18.0,5.0,-100.00,ENE,62,6.0,12.0,56,-99.99,,,0.00,0.000000,,2013-03-16 01:32:00,
2013-03-15 20:42:00,18.0,5.0,-100.00,ENE,62,6.0,12.0,56,-99.99,,,0.00,0.000000,,2013-03-16 01:42:00,
2013-03-15 20:53:00,18.0,5.0,-100.00,ENE,62,6.0,12.0,56,-99.99,,,0.00,0.000000,,2013-03-16 01:53:00,
2013-03-15 21:02:00,18.0,5.0,-100.00,ENE,62,6.0,12.0,56,-99.99,,,0.00,0.000000,,2013-03-16 02:02:00,
2013-03-15 21:12:00,18.0,5.0,-100.00,ENE,62,6.0,12.0,56,-99.99,,,0.00,0.000000,,2013-03-16 02:12:00,
2013-03-15 21:43:00,16.0,4.0,-100.00,NE,39,4.0,12.0,59,0.00,,,0.00,0.000000,,2013-03-16 02:43:00,
2013-03-15 21:52:00,16.0,4.0,-100.00,NE,39,4.0,12.0,59,0.00,,,0.00,0.000000,,2013-03-16 02:52:00,
2013-03-15 22:02:00,16.0,4.0,-100.00,NE,39,4.0,12.0,59,0.00,,,0.00,0.000000,,2013-03-16 03:02:00,
2013-03-15 22:12:00,16.0,4.0,-100.00,NE,39,4.0,12.0,59,0.00,,,0.00,0.000000,,2013-03-16 03:12:00,
2013-03-15 22:43:00,15.0,7.0,-100.00,NE,47,5.0,12.0,69,0.00,,,0.00,0.000000,,2013-03-16 03:43:00,
2013-03-15 22:53:00,15.0,7.0,-100.00,NE,47,5.0,12.0,69,0.00,,,0.00,0.000000,,2013-03-16 03:53:00,
2013-03-15 23:02:00,15.0,7.0,-100.00,NE,47,5.0,12.0,69,0.00,,,0.00,0.000000,,2013-03-16 04:02:00,
2013-03-15 23:12:00,15.0,7.0,-100.00,NE,47,5.0,12.0,69,0.00,,,0.00,0.000000,,2013-03-16 04:12:00,
2013-03-15 23:33:00,14.0,8.0,-100.00,NNE,19,2.0,9.0,77,0.00,,,0.00,0.000000,,2013-03-16 04:33:00,
2013-03-15 23:43:00,14.0,8.0,-100.00,NNE,19,2.0,9.0,77,0.00,,,0.00,0.000000,,2013-03-16 04:43:00,
2013-03-15 23:53:00,14.0,8.0,-100.00,NNE,19,2.0,9.0,77,0.00,,,0.00,0.000000,,2013-03-16 04:53:00,